Retour au catalogue

STARLINK-4135

ActifCommunicationsVLEO
NORAD 53248·PAYLOAD·🇺🇸 United States

Lancé Jul 24, 2022 depuis Cape Canaveral Space Force Station

Loading…

Prochains Passages (prochaines 24 heures)

TLE

FraisSource: CelesTrak SupGP

Époque: Sep 15, 2026, 01:35 UTC

1 53248C 22086G   26258.06645833 -.00034278  00000+0 -11024-2 0  2581
2 53248  53.1585  59.1335 0001060  85.0991 269.4700 15.31714666    15

Suivez STARLINK-4135 en temps réel avec AllMySat

Download on the App Store